Simultaneous Nadir Overpasses (SNOs) Predictions

Prediction of SNOs between AQUA and METOP-C Satellite Orbit:

Table of predicted SNOs for the next 14.0 days since TLE Epoch: 5/21/2021
Index Date (AQUA) Time (AQUA) Lat,Lon (AQUA) SZA (AQUA ) Date (METOP-C) Time (METOP-C) Lat,Lon (METOP-C) SZA (METOP-C ) Distance(km) Time Diff (sec)
1 05/24/2021 07:40:55 -73.72,-120.81 127.13 05/24/2021 07:39:59 -73.72,-120.70 127.13 3.30 56
2 05/24/2021 08:30:23 73.77, 46.73 52.91 05/24/2021 08:30:37 73.79, 46.80 52.93 3.20 14
3 05/24/2021 09:20:01 -74.39,-147.05 126.43 05/24/2021 09:21:07 -74.39,-144.40 126.52 79.31 66
4 05/27/2021 03:15:09 -73.69, -54.30 127.66 05/27/2021 03:14:21 -73.72, -54.31 127.63 2.66 48
5 05/27/2021 04:04:38 73.80, 113.11 52.45 05/27/2021 04:04:59 73.78, 113.18 52.43 2.77 21
6 05/29/2021 22:49:24 -73.72, 12.08 128.07 05/29/2021 22:48:43 -73.71, 12.09 128.07 0.94 41
7 05/29/2021 23:38:52 73.78, 179.60 51.99 05/29/2021 23:39:21 73.76, 179.55 51.98 1.95 29
8 06/01/2021 18:23:37 -73.70, 78.56 128.48 06/01/2021 18:23:04 -73.70, 78.48 128.47 2.69 33
9 06/01/2021 19:13:06 73.81,-114.05 51.64 06/01/2021 19:13:41 73.80,-113.96 51.62 3.11 35
10 06/04/2021 13:57:52 -73.74, 144.91 128.77 06/04/2021 13:57:25 -73.74, 144.98 128.77 2.07 27
11 06/04/2021 14:47:20 73.81, -47.59 51.30 06/04/2021 14:48:03 73.78, -47.59 51.27 2.86 43



Historial Predications of SNOs between AQUA and METOP-C
